Weather History for Auckland, New Zealand

Change the Weather History Date:

Thursday, November 15, 2012

  Actual Average Record
Temperature  
Mean Temperature 60 °F -  
Max Temperature 66 °F 64 °F 71 °F (2006)
Min Temperature 55 °F 53 °F 50 °F (2005)
Degree Days  
Heating Degree Days 4    
Growing Degree Days 10 (Base 50)    
Moisture  
Dew Point 54 °F    
Average Humidity 81    
Maximum Humidity 100    
Minimum Humidity 60    
Precipitation  
Precipitation 0.00 in - - ()
Sea Level Pressure  
Sea Level Pressure 29.75 in    
Wind  
Wind Speed 8 mph ()    
Max Wind Speed 18 mph    
Max Gust Speed -    
Visibility 6.0 miles    
Events Rain    
Averages and records for this station are not official NWS values.
T = Trace of Precipitation, MM = Missing Value Source: Averaged Metar Reports

Daily Weather History Graph

Daily Weather History Graph

Search for Another Location

Airport:

Trip Planner

Search our weather history database for the weather conditions in past years. The results will help you decide how hot, cold, wet, or windy it might be!

Date:

Astronomy

Nov. 15, 2012 Rise Set
Actual Time 6:02 AM NZDT 8:08 PM NZDT
Civil Twilight 5:33 AM NZDT 8:37 PM NZDT
Nautical Twilight 4:58 AM NZDT 9:13 PM NZDT
Astronomical Twilight 4:20 AM NZDT 9:51 PM NZDT
Moon 6:50 AM NZDT (11/15) 9:36 PM NZDT (11/15)
Length of Visible Light 15h 04m
Length of Day
14h 06m
New Moon, 2% of the Moon is Illuminated
Nov 15
New Moon
Nov 21
First Quarter
Nov 29
Full
Dec 7
Last Quarter
Dec 13
New

Hourly Weather History & Observations

Time (NZDT) Temp. Dew Point Humidity Pressure Visibility Wind Dir Wind Speed Gust Speed Precip Events Conditions
12:00 AM 55.4 °F 48.2 °F 77% 29.89 in 6.2 mi WNW 9.2 mph - N/A   Scattered Clouds
1:00 AM 57.2 °F 50.0 °F 77% 29.89 in 6.2 mi NW 4.6 mph - N/A   Mostly Cloudy
2:00 AM 57.2 °F 50.0 °F 77% 29.86 in 6.2 mi NW 8.1 mph - N/A   Mostly Cloudy
3:00 AM 55.4 °F 53.6 °F 94% 29.83 in 6.2 mi North 3.5 mph - N/A   Mostly Cloudy
4:00 AM 55.4 °F 53.6 °F 94% 29.83 in 6.2 mi North 5.8 mph - N/A   Mostly Cloudy
5:00 AM 55.4 °F 53.6 °F 94% 29.80 in 6.2 mi NNE 6.9 mph - N/A Rain Rain Showers
6:00 AM 55.4 °F 55.4 °F 100% 29.80 in 6.2 mi NNE 5.8 mph - N/A   Mostly Cloudy
7:00 AM 57.2 °F 55.4 °F 94% 29.77 in 2.5 mi NNE 6.9 mph - N/A   Drizzle
8:00 AM 57.2 °F 55.4 °F 94% 29.77 in 6.2 mi NNE 9.2 mph - N/A   Mostly Cloudy
9:00 AM 59.0 °F 57.2 °F 94% 29.77 in 6.2 mi NNE 8.1 mph - N/A   Scattered Clouds
10:00 AM 60.8 °F 55.4 °F 82% 29.77 in 6.2 mi North 9.2 mph - N/A   Partly Cloudy
11:00 AM 62.6 °F 55.4 °F 77% 29.74 in 6.2 mi NNW 8.1 mph - N/A   Scattered Clouds
12:00 PM 66.2 °F 51.8 °F 60% 29.74 in 6.2 mi NW 18.4 mph - N/A   Mostly Cloudy
1:00 PM 66.2 °F 55.4 °F 68% 29.71 in 6.2 mi WNW 11.5 mph - N/A   Mostly Cloudy
2:00 PM 66.2 °F 53.6 °F 64% 29.71 in 6.2 mi WNW 18.4 mph - N/A   Mostly Cloudy
3:00 PM 64.4 °F 53.6 °F 68% 29.68 in 6.2 mi WNW 17.3 mph - N/A   Mostly Cloudy
4:00 PM 66.2 °F 53.6 °F 64% 29.68 in 6.2 mi West 15.0 mph - N/A   Scattered Clouds
5:00 PM 64.4 °F 51.8 °F 64% 29.65 in 6.2 mi West 12.7 mph - N/A   Partly Cloudy
6:00 PM 64.4 °F 53.6 °F 68% 29.65 in 6.2 mi WSW 10.4 mph - N/A   Partly Cloudy
7:00 PM 60.8 °F 53.6 °F 77% 29.68 in 6.2 mi WSW 10.4 mph - N/A   Scattered Clouds
8:00 PM 59.0 °F 55.4 °F 88% 29.71 in 6.2 mi WSW 10.4 mph - N/A   Scattered Clouds
9:00 PM 59.0 °F 55.4 °F 88% 29.71 in 6.2 mi WSW 15.0 mph - N/A   Scattered Clouds
10:00 PM 59.0 °F 55.4 °F 88% 29.74 in 6.2 mi SW 12.7 mph - N/A   Partly Cloudy
11:00 PM 59.0 °F 57.2 °F 94% 29.74 in 6.2 mi SW 9.2 mph - N/A Rain Light Rain Showers